Jonesboro, AR

8:39 AM CDT on March 30, 2017 (GMT -0500)
Jonesboro Municipal

Weather History for KJBR - April, 2014

Change the Weather History Date:

Monday, April 7, 2014

  Actual Average Record
Temperature  
Mean Temperature 49 °F 57 °F  
Max Temperature 57 °F 68 °F 86 °F (1959)
Min Temperature 41 °F 47 °F 28 °F (1994)
Degree Days  
Heating Degree Days 16 9  
Month to date heating degree days 66 67  
Since 1 July heating degree days 3962 3487  
Cooling Degree Days 0 1  
Month to date cooling degree days 6 7  
Year to date cooling degree days 6 13  
Moisture  
Dew Point 44 °F    
Average Humidity 78    
Maximum Humidity 100    
Minimum Humidity 55    
Precipitation  
Precipitation 0.26 in 0.14 in 1.19 in (1983)
Month to date precipitation 1.83 1.03  
Year to date precipitation 11.55 12.68  
Snow  
Snow 0.00 in 0.00 in - ()
Month to date snowfall 0.0 0.0  
Since 1 July snowfall 5.2 4.8  
Snow Depth 0.00 in    
Sea Level Pressure  
Sea Level Pressure 29.70 in    
Wind  
Wind Speed 9 mph (NNW)    
Max Wind Speed 21 mph    
Max Gust Speed 26 mph    
Visibility 8 miles    
Events Rain    
T = Trace of Precipitation, MM = Missing Value Source: NWS Daily Summary

Daily Weather History Graph

Daily Weather History Graph

Search for Another Location

Airport or City:

Trip Planner

Search our weather history database for the weather conditions in past years. The results will help you decide how hot, cold, wet, or windy it might be!

Date:

Astronomy

Apr. 07, 2014 Rise Set
Actual Time 6:40 AM CDT 7:29 PM CDT
Civil Twilight 6:14 AM CDT 7:55 PM CDT
Nautical Twilight 5:43 AM CDT 8:26 PM CDT
Astronomical Twilight 5:12 AM CDT 8:57 PM CDT
Moon 12:41 PM CDT (4/7) 2:01 AM CDT (4/7)
Length of Visible Light 13h 40m
Length of Day
12h 48m
First Quarter, 53% of the Moon is Illuminated
Apr 7
First Quarter
Apr 15
Full
Apr 22
Last Quarter
Apr 29
New
May 6
First Quarter

Hourly Weather History & Observations

Time (CDT) Temp. Windchill Dew Point Humidity Pressure Visibility Wind Dir Wind Speed Gust Speed Precip Events Conditions
12:08 AM 48.2 °F - 46.4 °F 93% 29.76 in 10.0 mi ENE 11.5 mph - N/A   Overcast
12:22 AM 48.2 °F - 46.4 °F 93% 29.76 in 10.0 mi ENE 11.5 mph - N/A   Overcast
12:53 AM 48.9 °F - 46.0 °F 90% 29.77 in 10.0 mi NNE 8.1 mph - N/A   Overcast
1:53 AM 48.9 °F - 46.0 °F 90% 29.68 in 9.0 mi NE 13.8 mph - 0.01 in Rain Light Rain
2:04 AM 48.2 °F - 46.4 °F 93% 29.67 in 9.0 mi NE 12.7 mph - 0.00 in   Overcast
2:19 AM 48.2 °F - 46.4 °F 93% 29.64 in 10.0 mi NE 12.7 mph - 0.00 in   Overcast
2:53 AM 48.9 °F - 46.0 °F 90% 29.63 in 10.0 mi ENE 16.1 mph 21.9 mph 0.00 in   Overcast
3:50 AM 48.2 °F - 46.4 °F 93% 29.59 in 7.0 mi NE 15.0 mph - 0.00 in   Overcast
3:53 AM 48.9 °F - 46.9 °F 93% 29.59 in 7.0 mi NE 17.3 mph - 0.00 in   Overcast
4:21 AM 48.2 °F - 48.2 °F 100% 29.63 in 2.5 mi NE 9.2 mph - 0.01 in Rain Light Rain
4:53 AM 48.9 °F - 48.0 °F 97% 29.60 in 2.5 mi East 10.4 mph - 0.03 in Rain Light Rain
5:05 AM 48.2 °F - 48.2 °F 100% 29.60 in 3.0 mi ENE 8.1 mph - 0.02 in Rain Light Rain
5:53 AM 50.0 °F - 48.9 °F 96% 29.62 in 4.0 mi WNW 10.4 mph - 0.05 in Rain Light Rain
6:01 AM 48.2 °F - 48.2 °F 100% 29.61 in 2.5 mi NW 10.4 mph - 0.03 in Rain Heavy Rain
6:16 AM 48.2 °F - 48.2 °F 100% 29.61 in 5.0 mi NW 11.5 mph - 0.05 in Rain Light Rain
6:53 AM 48.9 °F - 48.0 °F 97% 29.65 in 3.0 mi NW 16.1 mph 23.0 mph 0.08 in Rain Rain
7:04 AM 48.2 °F - 46.4 °F 93% 29.64 in 2.5 mi NW 12.7 mph 23.0 mph 0.06 in Rain Heavy Rain
7:19 AM 48.2 °F - 46.4 °F 93% 29.62 in 5.0 mi NNW 9.2 mph 25.3 mph 0.08 in Rain Light Rain
7:48 AM 48.2 °F - 46.4 °F 93% 29.63 in 10.0 mi NW 11.5 mph 18.4 mph 0.08 in Rain Light Rain
7:53 AM 48.0 °F - 46.0 °F 93% 29.63 in 10.0 mi NW 11.5 mph - 0.09 in Rain Light Rain
8:53 AM 48.0 °F - 46.0 °F 93% 29.63 in 10.0 mi NW 12.7 mph 19.6 mph 0.00 in   Overcast
9:02 AM 48.2 °F - 46.4 °F 93% 29.63 in 10.0 mi NW 11.5 mph - N/A   Overcast
9:21 AM 48.2 °F - 46.4 °F 93% 29.63 in 10.0 mi NW 15.0 mph 21.9 mph N/A   Overcast
9:36 AM 46.4 °F 39.8 °F 44.6 °F 93% 29.63 in 9.0 mi NW 16.1 mph 25.3 mph N/A   Overcast
9:53 AM 46.9 °F - 44.1 °F 90% 29.64 in 9.0 mi NW 13.8 mph 21.9 mph N/A   Overcast
10:36 AM 46.4 °F 40.1 °F 44.6 °F 93% 29.67 in 6.0 mi WNW 15.0 mph 21.9 mph N/A   Overcast
10:53 AM 46.9 °F - 44.1 °F 90% 29.68 in 6.0 mi NW 17.3 mph 25.3 mph N/A   Overcast
11:49 AM 48.2 °F - 42.8 °F 82% 29.69 in 10.0 mi NW 15.0 mph 25.3 mph N/A   Overcast
11:53 AM 48.0 °F - 43.0 °F 83% 29.69 in 10.0 mi NW 13.8 mph 23.0 mph N/A   Overcast
12:53 PM 48.0 °F - 42.1 °F 80% 29.72 in 10.0 mi NW 15.0 mph 23.0 mph N/A   Overcast
1:21 PM 48.2 °F - 42.8 °F 82% 29.72 in 10.0 mi NW 11.5 mph 23.0 mph N/A   Overcast
1:53 PM 50.0 °F - 41.0 °F 71% 29.74 in 10.0 mi NW 10.4 mph 20.7 mph N/A   Overcast
2:05 PM 50.0 °F - 41.0 °F 71% 29.74 in 10.0 mi NW 12.7 mph 19.6 mph N/A   Overcast
2:48 PM 51.8 °F - 41.0 °F 67% 29.74 in 10.0 mi NNW 10.4 mph 19.6 mph N/A   Overcast
2:53 PM 51.8 °F - 42.8 °F 71% 29.74 in 10.0 mi NNW 6.9 mph - N/A   Overcast
3:31 PM 51.8 °F - 42.8 °F 71% 29.75 in 10.0 mi NW 8.1 mph - N/A   Overcast
3:53 PM 52.0 °F - 41.0 °F 66% 29.75 in 10.0 mi NNW 10.4 mph 20.7 mph N/A   Overcast
4:53 PM 55.9 °F - 42.1 °F 60% 29.76 in 10.0 mi NW 8.1 mph - N/A   Mostly Cloudy
5:53 PM 55.9 °F - 41.0 °F 57% 29.78 in 10.0 mi NNW 9.2 mph - N/A   Scattered Clouds
6:53 PM 55.9 °F - 39.9 °F 55% 29.80 in 10.0 mi Calm Calm - N/A   Clear
7:53 PM 48.9 °F - 39.9 °F 71% 29.82 in 10.0 mi Calm Calm - N/A   Clear
8:53 PM 44.1 °F - 39.9 °F 85% 29.84 in 10.0 mi Calm Calm - N/A   Clear
9:53 PM 43.0 °F - 39.9 °F 89% 29.86 in 10.0 mi Calm Calm - N/A   Clear
10:53 PM 46.0 °F 43.9 °F 41.0 °F 83% 29.87 in 10.0 mi South 4.6 mph - N/A   Clear
11:53 PM 42.1 °F - 39.0 °F 89% 29.86 in 10.0 mi Calm Calm - N/A   Clear